Location: Kampong Bukit Dukong
(3.0333°N, 101.7667°E)
Time: 20:49:11
(UTC+00:00)

Daily predictions for brighter satellites

Satellite Brightness Start Highest point End
(mag) Time Altitude Azimuth Time Altitude Azimuth Time Altitude Azimuth
CZ-4B R/B 3.6 12:01:35 10° SSE 12:05:24 64° ENE 12:09:04 10° N
SPOT 1/Viking Rocket 4.3 12:01:27 10° SE 12:05:58 30° ENE 12:10:27 10° NNE
Cosmos 1943 3.2 12:01:05 10° SSW 12:06:46 81° ESE 12:12:26 10° NNE
Cosmos 1825 3.6 12:04:11 10° SSW 12:06:55 31° W 12:09:36 10° NNW
Ariane 3 Deb 2.1 12:03:38 10° W 12:07:07 69° N 12:09:46 16° E
Cosmos 2278 Rocket 2.1 12:01:51 10° N 12:07:26 67° ENE 12:13:01 10° SSE
SL-08 R/B 3.3 12:04:18 10° NNE 12:09:06 74° ESE 12:13:49 10° S
YAOGAN 1 2.5 12:05:06 10° SSE 12:09:19 59° ENE 12:13:29 10° N
Landsat 7 4.1 12:05:37 10° S 12:10:17 72° WSW 12:14:57 10° NNW
HETE-2 4.5 12:10:47 10° W 12:14:40 74° S 12:17:14 20° E
ARIANE 3 DEB 4.2 12:14:10 10° SW 12:15:14 12° S 12:16:18 10° SSE
Ariane V96 H10-3 3.5 12:09:41 10° WSW 12:18:45 62° S 12:20:34 22° ESE
OAO 3 Rocket 3.8 12:14:21 10° WNW 12:18:53 55° SW 12:23:30 10° SE
RESURS DK-1 2.8 12:15:19 10° N 12:19:00 35° ENE 12:22:42 10° SE
USA 267 3.3 12:16:09 10° SE 12:22:43 86° SW 12:29:16 10° NW
Resurs 1-3 3.7 12:20:12 10° SSE 12:24:22 50° ENE 12:28:32 10° N
DELTA-4 R/B 3.6 12:08:41 10° WNW 12:24:38 82° SSW 12:27:31 19° ESE
ARIANE 6 FM1 Upper Stage 4.3 12:20:47 10° NW 12:24:52 39° WSW 12:28:58 10° S
Cosmos 1782 Rocket 4.2 12:26:12 27° NE 12:27:27 32° E 12:31:21 10° SSE
ACS3 Solar Sail 2.2 12:21:38 10° S 12:27:53 72° WSW 12:34:14 10° NNW
Tiangong 0.8 12:25:38 10° W 12:28:03 19° SW 12:30:27 10° S
Helios 1A 3.1 12:27:06 27° NE 12:28:58 47° ESE 12:32:52 10° S
Cosmos 2084 Rocket 3.5 12:26:30 10° NNW 12:30:26 69° WSW 12:34:24 10° SSE
Cosmos 1328 3.8 12:27:39 10° SSE 12:31:16 47° E 12:32:13 38° NE
ARIANE 5 DEB (SYLDA) 2.3 12:26:07 10° W 12:32:22 76° N 12:33:21 42° E
Cosmos 1898 Rocket 3.5 12:37:28 10° NNW 12:42:46 83° WSW 12:48:04 10° S
CBERS 1 LM4 rocket 4.4 12:38:41 10° SSE 12:43:21 53° ENE 12:47:57 11° N
Spelda 30 2.8 12:42:22 10° WSW 12:44:41 45° S 12:44:47 44° S
Aureole 1 Rocket 4.1 12:39:22 10° NNW 12:45:48 68° W 12:50:55 10° S
SL-08 ROCKET BODY 4.3 12:40:22 10° S 12:46:17 66° E 12:50:14 22° NNE
Cosmos 1603 3.7 12:42:06 10° SSW 12:47:42 78° WNW 12:51:31 21° N
Resurs 01 Rocket 3.9 12:44:57 10° SE 12:45:15 12° SE 12:45:15 12° SE
COSMOS 2455 4.4 12:51:30 10° SSE 12:54:21 19° SE 12:54:21 19° SE
NOSS 3-2 (A) 3.4 12:51:35 10° S 12:55:26 37° SE 12:55:26 37° SE
SJ-6B 3.0 12:52:46 10° S 12:55:30 51° S 12:55:30 51° S
BREEZE M DEB (TANK) 3.0 12:55:39 10° SW 12:57:06 36° W 12:57:06 36° W
Milstar 3 Cent rocket 3.1 12:55:06 10° W 13:01:16 34° NNW 13:02:37 30° N
Lacrosse 5 3.8 12:58:41 10° WNW 13:03:05 29° WSW 13:07:29 10° S
ARIANE 5 DEB (SYLDA) 3.9 12:51:51 10° W 13:04:17 68° N 13:05:21 57° NE
Cosmos 1378 Rocket 3.6 13:02:24 10° S 13:06:39 71° W 13:06:48 70° WNW
Cosmos 1300 Rocket 3.7 13:06:00 58° NW 13:06:40 70° W 13:10:59 10° S
ARIANE 5 R/B 3.0 13:04:34 10° W 13:06:04 21° W 13:06:04 21° W
ARIANE 5 R/B 2.8 13:13:52 10° W 13:16:58 70° S 13:17:42 61° SE
USA 281 3.6 13:24:57 49° SE 13:24:57 49° SE 13:30:15 10° S
Iridium 4 Rocket 4.0 13:20:29 10° S 13:24:13 49° SSW 13:24:13 49° SSW
ARIANE 44LP R/B 3.8 13:15:12 10° W 13:27:51 72° W 13:27:51 72° W
CENTAUR R/B 3.5 13:27:07 10° WSW 13:31:03 27° WNW 13:31:36 26° NW
Ariane H10 4.0 13:28:42 10° WSW 13:35:28 27° SSW 13:35:28 27° SSW
ARIANE 5 R/B 3.2 13:27:03 10° W 13:37:21 55° WSW 13:37:21 55° WSW
Ariane H10-3 4.4 13:47:45 10° WSW 14:06:30 58° SW 14:06:30 58° SW
Ariane H10+ 4.5 14:40:48 10° WSW 14:50:59 37° SW 14:50:59 37° SW
Atlas Centaur 2 3.4 20:40:32 57° ESE 20:40:32 57° ESE 20:46:54 10° ESE
Cosmos 2237 Rocket 4.4 20:47:10 16° NE 20:48:30 17° ENE 20:52:07 10° ESE
SL-16 R/B 3.8 20:43:16 10° SSE 20:46:23 32° SSE 20:46:23 32° SSE
ATLAS 5 CENTAUR R/B 3.8 21:05:51 29° NE 21:07:54 35° ENE 21:14:17 10° SE
BLOCK-DM UPPERSTAGE 4.2 21:10:50 51° SE 21:10:50 51° SE 21:16:17 10° E
CZ-4C R/B 3.5 21:08:41 45° N 21:11:48 69° ENE 21:20:47 10° SSE
Cosmos 371 Rocket 4.2 21:21:32 10° S 21:26:08 47° ESE 21:30:45 10° NNE
Ariane H10 3.3 21:32:36 32° S 21:32:58 33° SSE 21:39:31 10° ESE
Cosmos 1816 Rocket 4.4 21:33:09 56° NNW 21:34:33 78° W 21:40:55 10° S
Cosmos 1980 3.8 21:36:16 41° N 21:38:13 70° ENE 21:43:51 10° SSE
Cosmos 1844 Rocket 3.6 21:35:15 10° S 21:40:41 49° ESE 21:46:04 10° NNE
Meteor 1-23 Rocket 4.4 21:40:03 21° N 21:43:52 71° E 21:49:35 10° SSE
IRAS Rocket 4.0 21:39:16 10° N 21:44:47 82° WNW 21:50:16 10° SSW
Cosmos 2227 4.0 21:39:51 10° SSW 21:45:29 86° WNW 21:51:08 10° NNE
Cosmos 1666 Rocket 3.4 21:41:30 10° S 21:45:53 90° N 21:46:15 74° N
ARGOS 3.6 21:51:50 41° WSW 21:51:50 41° WSW 21:55:58 10° SSW
SL-12 R/B(2) 4.0 21:44:34 10° SW 21:51:37 54° WNW 21:59:09 10° N
NOSS 0 Rocket 4.1 21:52:11 44° WNW 21:53:15 49° WSW 21:59:13 10° S
COSMOS 2428 4.1 21:57:00 21° SW 21:57:00 21° SW 22:00:06 10° SSW
Ariane H10+ 0.7 22:00:42 78° SSW 22:00:47 79° S 22:05:32 10° E
Cosmos 1300 3.9 21:57:53 10° SSE 22:00:58 35° E 22:04:02 10° NNE
Cosmos 1470 Rocket 4.1 21:56:45 10° S 22:01:08 61° E 22:05:30 10° NNE
ARIANE 44P R/B 2.1 22:04:10 55° WSW 22:04:46 86° S 22:11:06 10° E
Ariane 42P Rocket 3.6 22:06:34 15° SE 22:06:34 15° SE 22:07:01 10° SE
SL-4 R/B 1.4 22:08:55 60° NW 22:08:55 60° NW 22:11:58 10° NNE
ADEOS Rocket 3.9 22:02:06 10° NNE 22:08:48 62° ESE 22:16:10 10° S
Cosmos 1484 Rocket 4.5 22:11:41 17° SW 22:11:41 17° SW 22:12:41 10° SW
GMS 1 Rocket B 4.4 22:08:32 41° NW 22:09:57 86° NNE 22:14:55 10° ESE
Cosmos 1891 Rocket 4.4 22:04:49 10° SSW 22:10:40 55° W 22:16:33 10° N
ASTEX 1 4.4 22:06:53 10° NNE 22:11:37 48° E 22:16:23 10° S
SL-08 RB Rocket 4.5 22:15:13 29° W 22:15:13 29° W 22:18:34 10° SW
Meteor 2-17 Rocket 4.5 22:14:20 10° N 22:20:24 83° E 22:26:30 10° S
Meteor 2-10 Rocket 3.9 22:17:09 10° S 22:22:08 65° E 22:27:13 10° NNE
ARIANE 5 R/B 3.2 22:17:55 10° NNE 22:22:48 55° ESE 22:27:39 10° S
Cosmos 304 Rocket 4.3 22:18:46 10° SW 22:23:01 33° WNW 22:27:16 10° NNW
CZ-3 R/B 3.4 22:02:34 10° WSW 22:23:57 38° NW 22:30:55 10° NNE
GPS 2-15 Rocket1 4.4 22:23:10 20° NW 22:24:15 22° NNW 22:27:48 10° NE
Cosmos 1844 3.7 22:21:15 10° SSW 22:26:46 60° WNW 22:32:20 10° N
Atlas Centaur 2 4.1 22:22:37 16° W 22:28:00 31° SSW 22:35:04 10° SSE
Ariane H10+ 3.3 22:25:14 18° W 22:28:32 85° S 22:43:50 10° E
Cosmos 1932 4.5 22:22:31 10° NNW 22:28:55 79° WSW 22:35:23 10° SSE
USA 290 2.2 22:27:22 10° S 22:30:30 79° ESE 22:33:38 10° NNE
ARIANE 5 R/B 4.1 22:28:34 14° WSW 22:31:35 54° S 22:47:35 10° E
Cosmos 2237 Rocket 2.9 22:29:03 18° NW 22:32:16 32° WSW 22:37:11 10° SSW
SOZ 4.4 22:31:51 10° SSW 22:33:46 72° ESE 22:35:44 10° NNE
USA 81 4.4 22:29:01 10° NNW 22:33:55 41° W 22:38:50 10° SSW
Ariane H10+ 4.1 22:13:14 10° W 22:39:48 78° N 22:44:00 10° ENE
Stardust Del rocket 3.1 22:38:23 16° NW 22:40:55 48° NNE 22:43:22 10° E
USA 276 1.7 22:40:29 10° WSW 22:42:39 35° NW 22:44:39 10° NNE
DELTA 2 R/B (1) 4.4 22:37:26 10° NNW 22:42:48 47° NE 22:48:08 10° ESE
Cosmos 405 Rocket 3.0 22:44:38 10° SSW 22:47:42 33° W 22:50:48 10° NNW
Cosmos 1486 Rocket 4.1 22:43:37 10° S 22:48:49 84° ESE 22:54:02 10° NNE
ATLAS 5 CENTAUR R/B 3.7 22:46:10 11° WNW 22:51:14 27° WSW 22:57:08 10° S
Cosmos 2228 Rocket 3.1 22:47:48 10° NNW 22:52:12 60° W 22:56:34 10° S
COSMO-SKYMED 1 2.6 22:50:54 10° SSE 22:55:15 86° ENE 22:59:34 10° N
Cosmos 1758 3.2 22:52:51 10° SSW 22:56:30 56° W 23:00:09 10° N
IRS-P3 4.1 22:54:44 10° N 23:00:02 75° WNW 23:05:22 10° SSW
Okean 1-7 3.1 22:58:25 10° N 23:02:34 81° E 23:06:43 10° S
IRS-1C 4.4 22:58:31 10° N 23:03:33 45° WNW 23:08:37 10° SSW
Cosmos 841 Rocket 4.1 23:02:20 10° NW 23:07:00 36° WSW 23:11:39 10° SSW
